Location: L�Ave Maria
(50.7161°N, 1.5911°E)
Time: 23:07:24
(UTC+00:00)

SAR-Lupe-2 - Pass Details

Date: 10 July 2020
Orbit: 481 x 485 km, 98.1° (Epoch: 01 August)

Event Time Altitude Azimuth Distance (km) Brightness Sun altitude
Rises 21:06:55 0° 18° (NNE) 2,568 7.7 -7.9°
Reaches altitude 10° 21:09:02 10° 23° (NNE) 1,681 6.7 -8.1°
Maximum altitude 21:12:35 54° 102° (ESE) 595 3.7 -8.5°
Drops below altitude 10° 21:16:06 10° 180° (S) 1,664 5.8 -8.8°
Enters shadow 21:16:53 - 183° (S) 1,993 6.2 -8.9°
